Regional Weather Roundup
Issued by NWS

Home | Current Version | Previous Version | Text Only | Print | Product List | Glossary On
Versions: 1 2 3 4 5 6 7 8 9 10 11 12 13 14 15 16 17 18 19 20 21 22 23 24 25 26 27 28 29 30 31 32 33 34 35 36 37 38 39 40 41 42 43 44 45 46 47 48 49 50
827
ASUS43 KFSD 270010
RWRSD

WEATHER ROUNDUP FOR SOUTH DAKOTA
NATIONAL WEATHER SERVICE SIOUX FALLS SD
700 PM CDT WED APR 26 2017

NOTE: "FAIR" INDICATES FEW OR NO CLOUDS BELOW 12,000 FEET WITH NO
SIGNIFICANT WEATHER AND/OR OBSTRUCTIONS TO VISIBILITY.


SDZ001>005-009-010-012>017-270100-
NORTHWEST AND NORTH CENTRAL SOUTH DAKOTA

CITY           SKY/WX    TMP DP  RH WIND       PRES   REMARKS
BUFFALO          N/A     46  26  45 NE6       29.66F
FAITH            N/A     49  27  42 N13       29.71S
MOBRIDGE       CLOUDY    44  25  47 NE14      29.71S
$$

SDZ012>016-024>037-041>051-057-063-072>074-270100-
SOUTHWEST AND SOUTH CENTRAL SOUTH DAKOTA

CITY           SKY/WX    TMP DP  RH WIND       PRES   REMARKS
RAPID CTY ARPT CLOUDY    40  29  64 N6        29.73F
PIERRE         SUNNY     47  28  47 N15       29.70F
CUSTER         CLOUDY    41  34  76 E3        29.67S
ELLSWORTH AFB  CLOUDY    40  30  68 N7        29.73F
PHILIP         SUNNY     48  31  51 N9G20     29.72F
PINE RIDGE     SUNNY     45  32  60 NE9       29.72S
SPEARFISH      FAIR      34  28  80 NE6       29.73S WCI  29
WINNER         MOCLDY    47  29  49 N13       29.70S
$$

SDZ004>011-016>023-039-040-270100-
NORTHEAST SOUTH DAKOTA

CITY           SKY/WX    TMP DP  RH WIND       PRES   REMARKS
ABERDEEN       CLOUDY    31  25  78 N18       29.75S WCI  19
WATERTOWN      CLOUDY    29  24  82 N20       29.67S WCI  16
BROOKINGS      CLOUDY    31  25  78 N16       29.66S WCI  20
SISSETON         N/A     30  26  85 N21       29.70R WCI  17
$$

SDZ017-020-022-023-036>040-048>070-270100-
SOUTHEAST SOUTH DAKOTA

CITY           SKY/WX    TMP DP  RH WIND       PRES   REMARKS
SIOUX FALLS    CLOUDY    35  29  78 NW17      29.67S WCI  25
HURON          CLOUDY    34  28  79 N15       29.73R WCI  24
CHAMBERLAIN    CLOUDY    45  31  57 NW13      29.70F
MITCHELL       CLOUDY    37  29  72 N15       29.73R
YANKTON        CLOUDY    39  28  65 NW16G22   29.69F
$$

ABBREVIATIONS USED IN REMARKS
   TC - TEMPERATURE IN CELSIUS
  WCI - WIND CHILL INDEX
   HX - HEAT INDEX
  VSB - VISIBILITY





USA.gov is the U.S. government's official web portal to all federal, state and local government web resources and services.